Find Starlink 36810

NORAD ID: 67898 Int'l Des: 2026-035 Owner: SPXS Country: US Constellation: starlink operational
LEOCIRCULARRETROGRADE

Current View

Loading 3D Globe...

About Starlink 36810

Description loading...

Upcoming Passes

Passes for default location (London). Set your location on the main map for personalized predictions.

Altitude History

Loading altitude history...

Two-Line Element Set

1 67898U 26035V 26146.24142489 .00031676 00000-0 97921-3 0 9991
2 67898 97.2857 79.7619 0001438 92.2972 267.8436 15.33450440 15870
Epoch: May 26, 2026 • Age: 12 hours

Current Status

Altitude 491.3 km
Velocity 7.62 km/s
Sub-Earth Point -65.59°S, 92.25°E
Launch Date Feb 21, 2026
Age 0.2 years
Type internet

Technical Details

Classification Payload
Mass 575.00 kg
Dry Mass 530.00 kg
Total Mass 575.00 kg
Length 0.30 m
Diameter 4.10 m
Span 29.00 m
Shape Box + pan
Manufacturer SPXS
Bus Type Starlink V2MO
Phase Status In Orbit
Owner/State SPXS/US

Most Searched